Location: Blue Sky Observatory
(43.1153°N, 70.9036°W)
Time: 16:32:34
(UTC-04:00)

Daily predictions for brighter satellites

Satellite Brightness Start Highest point End
(mag) Time Altitude Azimuth Time Altitude Azimuth Time Altitude Azimuth
In-Cosmos 22 4.2 19:29:17 10° N 19:34:36 85° W 19:39:53 10° S
Cosmos 1544 3.0 19:31:39 10° S 19:35:17 71° E 19:38:58 10° NNE
FREGAT/IRIS 2.9 19:32:47 10° S 19:35:49 73° WSW 19:38:53 10° NNW
CZ-3B DEB 3.6 19:24:38 10° WSW 19:35:50 57° NW 19:41:00 10° NE
Cosmos-2242 3.8 19:34:03 10° SSE 19:37:46 30° E 19:41:30 10° NNE
Cosmos 1766 Rocket 3.8 19:39:12 10° N 19:43:34 49° ENE 19:47:54 10° SSE
Cosmos 1758 3.2 19:40:14 10° S 19:44:12 75° E 19:48:13 10° NNE
Cosmos 2369 Rocket 3.8 19:44:08 10° ESE 19:46:29 13° E 19:48:50 10° ENE
HJ-1C 3.4 19:43:05 10° SSE 19:46:29 85° ENE 19:49:56 10° N
FENGYUN 3A 3.7 19:41:14 10° SSE 19:46:39 88° ENE 19:52:04 10° NNW
Cosmos 1953 2.3 19:44:58 10° S 19:49:00 78° E 19:53:04 10° N
Lacrosse 5 3.6 19:47:25 10° W 19:51:57 32° NNW 19:56:29 10° NE
Cosmos 1833 Rocket 2.8 19:50:01 10° NNW 19:55:41 86° WSW 20:01:18 10° SSE
GP-B 3.3 19:54:29 10° SSE 19:58:45 47° E 20:03:02 10° N
ATLAS 5 CENTAUR R/B 1.8 19:59:54 10° SW 20:04:35 88° WNW 20:09:46 10° NE
CZ-2D R/B 3.2 20:01:32 10° SSE 20:05:23 70° ENE 20:09:17 10° N
Cosmos 1939 Rocket 4.1 20:04:26 15° ESE 20:06:49 25° ENE 20:10:15 10° NNE
Cosmos 482 Debris 2.2 20:05:18 10° NW 20:07:07 78° NNE 20:07:45 34° ESE
Lacrosse 5 rocket 1.4 20:03:15 10° NW 20:07:11 66° SW 20:10:29 13° SE
Cosmos 158 Rocket 4.3 20:02:14 10° NNW 20:07:23 73° WSW 20:12:39 10° S
USA 215 4.4 20:03:15 10° E 20:07:38 19° ESE 20:11:59 10° SSE
Meteor 1-29 4.0 20:04:47 10° NE 20:07:45 26° E 20:10:43 10° SSE
ALOS 3.2 20:03:36 10° S 20:08:09 52° W 20:12:44 10° NNW
Cosmos 372 Rocket 4.1 20:04:03 10° SSW 20:09:10 77° WNW 20:14:22 10° NNE
Cosmos 2278 Rocket 4.2 20:06:01 10° WSW 20:11:02 32° NW 20:16:06 10° N
Resurs 01 Rocket 1.8 20:07:10 10° S 20:11:34 75° WSW 20:16:01 10° NNW
Cosmos 1743 Rocket 3.8 20:10:04 10° N 20:14:24 49° ENE 20:18:37 11° SSE
Cosmos 1500 Rocket 4.2 20:10:37 10° N 20:14:35 35° ENE 20:17:17 18° SE
Cosmos 1733 3.1 20:11:56 10° S 20:15:47 75° E 20:19:41 10° NNE
CZ-4C R/B 3.1 20:12:10 10° SSE 20:16:10 23° ESE 20:20:31 10° ENE
USA 186 0.7 20:16:04 29° SSE 20:16:59 63° ENE 20:19:11 10° N
Spot 1 4.4 20:12:55 10° SSE 20:17:38 64° ENE 20:22:36 10° N
Helios 1B rocket 2.6 20:14:48 10° NNE 20:18:49 48° E 20:22:47 10° S
Cosmos 2251 Rocket 3.7 20:14:13 10° NNW 20:19:27 53° ENE 20:23:30 17° SE
COSMOS 2487 4.3 20:17:17 10° NW 20:20:31 31° WSW 20:23:42 10° SSW
BREEZE-M DEB (TANK) 3.1 20:19:07 10° NW 20:21:14 32° NNE 20:22:27 22° ENE
Cosmos 2151 3.8 20:19:01 10° NNE 20:22:49 31° ENE 20:24:19 24° ESE
Cosmos 2100 Rocket 4.0 20:16:40 10° S 20:22:59 78° E 20:29:23 10° N
Gblst 52 Del rocket 4.4 20:20:05 10° SSW 20:25:54 49° SE 20:30:40 13° ENE
Cosmos 1470 3.0 20:24:06 10° SSW 20:28:04 73° W 20:32:02 10° N
SAR-Lupe-4 3.5 20:27:04 12° SSE 20:30:17 89° WSW 20:33:54 10° NNW
PSLV R/B 4.4 20:28:32 10° SW 20:31:00 25° SSE 20:31:00 25° SSE
Tsikada Rocket 4.3 20:31:31 10° N 20:37:29 46° ENE 20:41:02 23° SE
Cosmos 494 Rocket 3.9 20:32:21 10° NNW 20:37:29 77° ENE 20:40:57 21° SSE
YAOGAN 6 3.7 20:37:47 28° ENE 20:37:48 28° ENE 20:41:02 10° N
Cosmos 2082 Rocket 3.8 20:34:57 10° NW 20:40:02 34° WSW 20:45:03 10° SSW
OAO 2 Rocket 4.4 20:36:20 10° SW 20:40:44 28° SSE 20:41:53 26° SE
Cosmos 1184 Rocket 3.1 20:43:40 10° NNW 20:47:03 69° W 20:48:38 28° S
Cosmos 1340 Rocket 3.9 20:44:50 10° NNW 20:48:39 43° W 20:52:25 10° SSW
Cosmos 1802 Rocket 4.0 20:43:09 10° S 20:49:17 84° W 20:55:32 10° N
Helios 1A 3.5 20:45:48 11° S 20:49:43 59° WSW 20:53:53 10° NNW
Cosmos 1842 Rocket 3.4 20:46:03 10° S 20:50:27 86° ESE 20:54:53 10° N
CZ-4B DEB 2.9 20:49:47 40° S 20:50:43 67° WSW 20:53:49 10° NNW
Cosmos 389 Rocket 2.3 20:52:51 46° S 20:53:46 78° E 20:57:18 10° NNE
SeaSat 1 4.1 20:51:49 10° S 20:56:08 31° WSW 21:00:30 10° NW
Meteor 1-16 Rocket 4.3 20:50:56 10° S 20:56:49 88° E 21:02:47 10° N
Envisat 3.0 20:54:15 19° S 20:57:55 81° WSW 21:03:02 10° NNW
Cosmos 1356 Rocket 3.5 20:54:53 10° NNW 20:58:58 72° W 21:00:45 32° S
Meteor 1-11 4.1 20:58:24 10° N 21:04:01 89° W 21:07:16 26° S
ERS-1 Rocket 2.9 21:03:09 45° SE 21:04:33 64° ENE 21:09:33 10° N
ISS -2.0 21:02:01 10° W 21:04:55 28° NNW 21:06:01 23° NNE
SL-14 R/B 3.7 21:02:27 10° NNW 21:06:17 60° W 21:07:46 34° SSW
Geosat 4.2 21:03:39 10° NNE 21:08:40 70° WNW 21:13:39 10° SW
Cosmos 2233 Rocket 4.0 21:12:07 42° SE 21:13:49 55° E 21:19:48 10° NNE
Cosmos 1626 3.2 21:13:05 10° N 21:15:34 36° NNE 21:15:34 36° NNE
Sich 1 4.3 21:15:44 10° N 21:18:27 28° NE 21:18:27 28° NE
MetOp-B 4.1 21:20:39 57° E 21:21:10 60° ENE 21:26:26 10° N
H-2A R/B 3.1 21:28:33 31° NE 21:28:33 31° NE 21:32:25 10° N
YAOGAN 11 4.2 21:29:48 69° NNE 21:29:48 69° NNE 21:33:57 10° N
Cosmos 2369 Rocket 2.1 21:24:01 10° SSW 21:29:40 88° WNW 21:35:19 10° NNE
Cosmos 1633 Rocket 4.5 21:26:10 10° N 21:28:39 28° NNE 21:28:39 28° NNE
Meteor 2-1 Rocket 4.2 21:27:09 23° SSW 21:30:55 82° W 21:36:35 10° N
Cosmos 2221 2.8 21:33:23 65° N 21:33:23 65° N 21:37:12 10° N
Cosmos 2058 3.5 21:28:55 10° NNW 21:32:58 52° W 21:33:12 51° WSW
Cosmos 1703 4.0 21:31:51 10° NNW 21:34:51 49° NNW 21:34:51 49° NNW
Lacrosse 5 4.3 21:33:02 10° NW 21:36:19 17° N 21:39:38 10° NE
Terra 3.8 21:39:38 18° NE 21:39:38 18° NE 21:41:30 10° NNE
Cosmos 1833 4.4 21:33:35 10° NNW 21:38:53 53° NE 21:38:53 53° NE
SPOT 5 3.0 21:40:47 74° ENE 21:40:47 74° ENE 21:45:55 10° N
Cosmos 2227 Rocket 4.5 21:43:27 10° NNE 21:45:06 11° NE 21:45:24 11° NE
Cosmos 1943 Rocket 3.3 21:48:52 32° NE 21:48:52 32° NE 21:51:51 10° NNE
CZ-3B DEB 3.8 21:43:04 10° WNW 21:47:35 19° NNW 21:49:27 15° NNE
ATLAS 5 CENTAUR R/B 4.5 21:46:38 10° WNW 21:50:07 19° NNW 21:53:50 10° NNE
NOAA 11 4.1 21:49:56 78° SW 21:50:09 80° WSW 21:55:42 10° NNW
H-2A R/B 4.2 21:53:31 18° NNE 21:53:31 18° NNE 21:54:46 10° N
USA 215 3.1 21:44:47 10° NE 21:51:20 74° SE 21:57:51 10° SW
Cosmos 2263 4.2 21:52:39 70° SW 21:53:15 80° WNW 21:58:58 10° NNE
Cosmos 1805 Rocket 4.5 21:52:17 10° NNW 21:55:43 47° NW 21:55:43 47° NW
CZ-4C R/B 2.7 21:58:50 10° SW 22:04:04 58° NW 22:10:04 10° NNE
SPOT 1/Viking Rocket 4.2 22:13:12 53° NNW 22:13:12 53° NNW 22:17:11 10° NNW
ARGOS 3.7 22:17:29 54° WNW 22:17:29 54° WNW 22:22:03 10° NNW
USA 267 3.5 22:24:10 57° NNE 22:24:11 57° NNE 22:30:34 10° NW
Cosmos 2219 4.3 22:24:33 10° NNW 22:28:11 38° N 22:28:11 38° N
Cosmos 2297 Rocket 4.2 22:58:42 10° N 23:01:13 22° NNE 23:01:13 22° NNE
H-2A R/B 4.0 23:09:10 26° NW 23:09:10 26° NW 23:11:56 10° NNW
Terra 4.3 23:18:31 18° NW 23:18:31 18° NW 23:19:52 10° NNW
ATLAS 3B R/B 3.7 23:20:37 42° NNE 23:20:37 42° NNE 23:25:14 10° NNE
Lacrosse 5 4.4 23:17:04 10° NNW 23:19:04 18° NNW 23:19:04 18° NNW
Cosmos 2227 Rocket 4.1 23:24:53 10° NNW 23:27:14 25° N 23:27:14 25° N
Cosmos 1943 Rocket 4.3 23:30:17 21° NW 23:30:32 22° NW 23:34:48 10° N
USA 215 4.2 23:28:00 10° NE 23:34:04 42° NNW 23:40:08 10° W
